LX2ZZ-13 Weather Reports


Display with metric or nautical units.
time (UTC)temp
F
wind
direction
speed
MPH
gust
MPH
rain 1hr
in
rain 24hr
in
rain mn
in
humidity
%
barometer
mb
20260504140611 56 90 0.0 2.0 0.00 0.02 0.02 88 1013.1
20260504130612 59 23 0.0 2.0 0.00 0.05 0.02 76 1013.4
20260504110615 62 270 0.0 2.0 0.02 0.05 0.02 74 1013.8
20260504100557 58 199 1.0 2.0 0.00 0.02 0.00 83 1014.1
20260504081522 58 0.0 0.0 0.00 0.02 0.00 76 1013.5
20260504080519 58 0.0 2.0 0.00 0.02 0.00 76 1013.5
20260504050523 46 0.0 0.0 0.00 0.02 0.00 99 1013.0
20260504045520 46 0.0 0.0 0.00 0.02 0.00 99 1013.0
20260504044517 45 0.0 0.0 0.00 0.02 0.00 99 1013.0
20260504043634 44 0.0 0.0 0.00 0.02 0.00 99 1013.0
20260504042610 44 0.0 0.0 0.00 0.02 0.00 99 1012.8
20260504041608 44 0.0 0.0 0.00 0.02 0.00 99 1012.9
20260504040604 43 0.0 0.0 0.00 0.02 0.00 99 1013.0
20260504035602 43 0.0 0.0 0.00 0.02 0.00 99 1013.0
20260504034558 42 0.0 0.0 0.00 0.02 0.00 99 1012.9
20260504033615 42 0.0 0.0 0.00 0.02 0.00 99 1012.9
20260504032612 42 0.0 0.0 0.00 0.02 0.00 99 1013.0
20260504031609 41 0.0 0.0 0.00 0.02 0.00 99 1012.9
20260504030546 41 0.0 0.0 0.00 0.02 0.00 99 1013.0
20260504025543 42 0.0 0.0 0.00 0.02 0.00 99 1012.8
20260504024540 43 0.0 0.0 0.00 0.02 0.00 99 1012.7
20260504023537 43 0.0 0.0 0.00 0.02 0.00 99 1012.7
20260504022533 42 0.0 0.0 0.00 0.02 0.00 99 1012.7
20260504021530 43 0.0 0.0 0.00 0.02 0.00 99 1012.8
20260504020527 43 0.0 0.0 0.00 0.02 0.00 99 1013.0
20260504015524 45 0.0 0.0 0.00 0.02 0.00 99 1013.0
20260504014540 44 0.0 0.0 0.00 0.02 0.00 99 1013.1
20260504013518 44 0.0 0.0 0.00 0.02 0.00 99 1013.1
20260504012615 44 0.0 0.0 0.00 0.02 0.00 99 1013.1
20260504011612 43 0.0 0.0 0.00 0.02 0.00 99 1013.2
20260504010609 44 0.0 0.0 0.00 0.02 0.00 99 1013.1
20260504005605 44 0.0 0.0 0.00 0.02 0.00 99 1013.0
20260504004622 45 0.0 0.0 0.00 0.02 0.00 99 1013.1
20260504003559 45 0.0 0.0 0.00 0.02 0.00 99 1013.1
20260504002556 46 0.0 0.0 0.00 0.02 0.00 99 1013.3
20260504001553 45 0.0 0.0 0.00 0.02 0.00 99 1013.0
20260504000550 44 0.0 0.0 0.00 0.02 0.00 99 1013.0
20260503235547 45 0.0 0.0 0.00 0.02 0.00 98 1012.9
20260503234544 44 0.0 0.0 0.00 0.02 0.00 98 1012.7
20260503233541 44 0.0 0.0 0.00 0.02 0.00 98 1012.7
20260503232537 45 0.0 0.0 0.00 0.02 0.00 98 1012.8
20260503231534 44 0.0 0.0 0.00 0.02 0.00 98 1012.8
20260503230551 45 0.0 0.0 0.00 0.02 0.00 98 1012.9
20260503225528 45 0.0 0.0 0.00 0.02 0.00 98 1013.1
20260503224525 45 0.0 0.0 0.00 0.02 0.00 98 1013.1
20260503223522 46 0.0 0.0 0.00 0.02 0.00 98 1013.2
20260503222518 46 0.0 0.0 0.00 0.02 0.00 98 1013.2
20260503221515 46 0.0 0.0 0.00 0.02 0.00 97 1013.0
20260503220612 46 0.0 0.0 0.00 0.02 0.00 97 1013.1
20260503215609 46 0.0 0.0 0.00 0.02 0.02 97 1013.0
20260503214606 47 0.0 0.0 0.00 0.02 0.02 96 1013.0
20260503213603 47 0.0 0.0 0.00 0.02 0.02 96 1013.1
20260503212600 49 0.0 0.0 0.00 0.02 0.02 97 1013.0
20260503211617 48 0.0 0.0 0.00 0.02 0.02 96 1012.8
20260503210614 48 0.0 0.0 0.00 0.02 0.02 96 1013.0
20260503205610 48 0.0 0.0 0.00 0.02 0.02 96 1012.9
20260503204548 48 0.0 0.0 0.00 0.02 0.02 96 1013.1
20260503203544 49 0.0 0.0 0.00 0.02 0.02 95 1013.1
20260503202541 49 0.0 0.0 0.00 0.02 0.02 95 1013.1
20260503201538 50 0.0 0.0 0.00 0.02 0.02 95 1013.2
20260503200535 50 0.0 2.0 0.00 0.02 0.02 95 1013.1
20260503195551 50 0.0 0.0 0.00 0.02 0.02 94 1013.0
20260503194528 51 270 0.0 2.0 0.00 0.02 0.02 94 1013.0
20260503193525 51 0.0 2.0 0.00 0.02 0.02 93 1013.0
20260503192522 52 0.0 0.0 0.00 0.02 0.02 92 1012.9
20260503191518 53 0.0 0.0 0.00 0.02 0.02 90 1012.9
20260503190535 55 0.0 0.0 0.00 0.02 0.02 88 1012.9
20260503185613 55 0.0 0.0 0.00 0.02 0.02 88 1013.0
20260503184609 56 0.0 0.0 0.00 0.02 0.02 86 1012.8
20260503183647 57 0.0 2.0 0.00 0.02 0.02 82 1012.7
20260503182603 59 0.0 0.0 0.00 0.02 0.02 77 1012.7
20260503181601 60 0.0 0.0 0.00 0.02 0.02 74 1012.6
20260503180557 60 248 0.0 2.0 0.00 0.02 0.02 72 1012.6
20260503175554 59 225 0.0 2.0 0.00 0.02 0.02 73 1012.4
20260503174551 59 232 1.0 4.0 0.00 0.02 0.02 72 1012.5
20260503173628 59 248 0.0 2.0 0.00 0.02 0.02 73 1012.6
20260503172545 60 225 0.0 2.0 0.00 0.02 0.02 71 1012.5
20260503171601 60 193 1.0 4.0 0.00 0.02 0.02 70 1012.6
20260503170539 59 113 1.0 4.0 0.00 0.02 0.02 70 1012.7
20260503150601 58 203 1.0 2.0 0.00 0.02 0.02 83 1013.5